Time,TemperatureF,DewpointF,PressureIn,WindDirection,WindDirectionDegrees,WindSpeedMPH,WindSpeedGustMPH,Humidity,HourlyPrecipIn,Conditions,Clouds,dailyrainin,SoftwareType,DateUTC
2013-02-24 00:00:00,41.4,21.6,29.66,ESE,102,0.0,0.0,45,0.00,,FEW035,0.00,VWS V14.01,2013-02-24 05:00:00,
2013-02-24 00:02:00,41.4,21.6,29.66,ESE,102,0.0,0.0,45,0.00,,BKN027,0.00,VWS V14.01,2013-02-24 05:02:00,
2013-02-24 00:04:00,41.4,21.6,29.66,South,184,0.0,0.0,45,0.00,,BKN027,0.00,VWS V14.01,2013-02-24 05:04:00,
2013-02-24 00:09:00,41.0,21.3,29.66,South,184,0.0,0.0,45,0.00,,BKN027,0.00,VWS V14.01,2013-02-24 05:09:00,
2013-02-24 00:14:00,40.8,21.1,29.66,ENE,61,0.0,0.0,45,0.00,,BKN027,0.00,VWS V14.01,2013-02-24 05:14:00,
2013-02-24 00:19:00,40.3,20.1,29.66,SE,128,0.0,0.0,44,0.00,,BKN027,0.00,VWS V14.01,2013-02-24 05:19:00,
2013-02-24 00:24:00,40.1,19.4,29.66,ESE,110,0.0,0.0,43,0.00,,BKN027,0.00,VWS V14.01,2013-02-24 05:24:00,
2013-02-24 00:29:00,39.9,19.8,29.66,SE,125,0.0,0.0,44,0.00,,BKN027,0.00,VWS V14.01,2013-02-24 05:29:00,
2013-02-24 00:35:00,39.9,18.1,29.66,ESE,111,0.0,0.0,41,0.00,,BKN027,0.00,VWS V14.01,2013-02-24 05:35:00,
2013-02-24 00:40:00,39.6,17.8,29.66,SSW,202,0.0,0.0,41,0.00,,BKN027,0.00,VWS V14.01,2013-02-24 05:40:00,
2013-02-24 00:45:00,39.6,17.8,29.66,SSE,153,0.0,0.0,41,0.00,,BKN027,0.00,VWS V14.01,2013-02-24 05:45:00,
2013-02-24 00:50:00,39.4,17.7,29.66,West,265,0.0,0.0,41,0.00,,BKN027,0.00,VWS V14.01,2013-02-24 05:50:00,
2013-02-24 00:55:00,39.6,17.8,29.66,NE,35,3.1,3.1,41,0.00,,BKN027,0.00,VWS V14.01,2013-02-24 05:55:00,
2013-02-24 01:00:00,39.7,18.0,29.66,ESE,111,0.0,0.0,41,0.00,,CLR,0.00,VWS V14.01,2013-02-24 06:00:00,
2013-02-24 01:05:00,39.6,17.2,29.66,ENE,75,0.0,0.0,40,0.00,,CLR,0.00,VWS V14.01,2013-02-24 06:05:00,
2013-02-24 01:10:00,39.4,17.7,29.66,ENE,75,0.0,0.0,41,0.00,,CLR,0.00,VWS V14.01,2013-02-24 06:10:00,
2013-02-24 01:15:00,39.2,17.5,29.66,SSE,155,0.0,0.0,41,0.00,,CLR,0.00,VWS V14.01,2013-02-24 06:15:00,
2013-02-24 01:20:00,39.0,17.9,29.66,East,98,0.0,0.0,42,0.00,,CLR,0.00,VWS V14.01,2013-02-24 06:20:00,
2013-02-24 01:26:00,38.7,17.6,29.66,SSE,158,0.0,0.0,42,0.00,,CLR,0.00,VWS V14.01,2013-02-24 06:26:00,
2013-02-24 01:31:00,38.7,18.1,29.66,SSW,209,4.9,4.9,43,0.00,,CLR,0.00,VWS V14.01,2013-02-24 06:31:00,
2013-02-24 01:36:00,38.7,18.1,29.63,ESE,118,2.2,2.2,43,0.00,,CLR,0.00,VWS V14.01,2013-02-24 06:36:00,
2013-02-24 01:41:00,38.8,18.3,29.63,East,87,2.7,2.7,43,0.00,,CLR,0.00,VWS V14.01,2013-02-24 06:41:00,
2013-02-24 01:46:00,38.8,17.7,29.63,ENE,72,0.0,0.0,42,0.00,,CLR,0.00,VWS V14.01,2013-02-24 06:46:00,
2013-02-24 01:51:00,38.8,17.7,29.66,WNW,295,0.0,0.0,42,0.00,,CLR,0.00,VWS V14.01,2013-02-24 06:51:00,
2013-02-24 01:56:00,39.0,17.9,29.66,North,8,3.6,3.6,42,0.00,,CLR,0.00,VWS V14.01,2013-02-24 06:56:00,
2013-02-24 02:01:00,39.2,18.0,29.66,NNW,348,2.7,3.6,42,0.00,,CLR,0.00,VWS V14.01,2013-02-24 07:01:00,
2013-02-24 02:06:00,39.4,17.7,29.66,NNW,327,4.9,4.9,41,0.00,,CLR,0.00,VWS V14.01,2013-02-24 07:06:00,
2013-02-24 02:11:00,39.2,17.5,29.66,North,357,2.7,2.7,41,0.00,,CLR,0.00,VWS V14.01,2013-02-24 07:11:00,
2013-02-24 02:16:00,38.7,17.6,29.66,North,6,2.7,2.7,42,0.00,,CLR,0.00,VWS V14.01,2013-02-24 07:16:00,
2013-02-24 02:21:00,38.8,17.7,29.66,North,6,2.7,2.7,42,0.00,,CLR,0.00,VWS V14.01,2013-02-24 07:21:00,
2013-02-24 02:26:00,38.8,17.2,29.66,North,0,0.0,0.0,41,0.00,,CLR,0.00,VWS V14.01,2013-02-24 07:26:00,
2013-02-24 02:31:00,38.5,16.8,29.66,SE,138,0.0,0.0,41,0.00,,CLR,0.00,VWS V14.01,2013-02-24 07:31:00,
2013-02-24 02:37:00,38.1,16.5,29.66,WSW,237,3.6,3.6,41,0.00,,CLR,0.00,VWS V14.01,2013-02-24 07:37:00,
2013-02-24 02:42:00,37.9,16.4,29.66,SSE,149,0.0,3.1,41,0.00,,CLR,0.00,VWS V14.01,2013-02-24 07:42:00,
2013-02-24 02:47:00,37.4,15.3,29.63,SE,133,0.0,0.0,40,0.00,,CLR,0.00,VWS V14.01,2013-02-24 07:47:00,
2013-02-24 02:52:00,37.4,15.3,29.63,NE,48,3.6,3.6,40,0.00,,CLR,0.00,VWS V14.01,2013-02-24 07:52:00,
2013-02-24 02:57:00,37.6,14.9,29.63,NE,49,4.9,4.9,39,0.00,,CLR,0.00,VWS V14.01,2013-02-24 07:57:00,
2013-02-24 03:02:00,37.8,15.0,29.66,ENE,58,3.1,3.1,39,0.00,,CLR,0.00,VWS V14.01,2013-02-24 08:02:00,
2013-02-24 03:07:00,37.6,14.9,29.66,ENE,57,3.6,3.6,39,0.00,,CLR,0.00,VWS V14.01,2013-02-24 08:07:00,
2013-02-24 03:12:00,37.4,14.7,29.66,ENE,57,5.4,5.4,39,0.00,,CLR,0.00,VWS V14.01,2013-02-24 08:12:00,
2013-02-24 03:17:00,37.4,14.7,29.66,ENE,68,2.7,2.7,39,0.00,,CLR,0.00,VWS V14.01,2013-02-24 08:17:00,
2013-02-24 03:22:00,37.2,15.1,29.66,ENE,66,2.2,2.7,40,0.00,,CLR,0.00,VWS V14.01,2013-02-24 08:22:00,
2013-02-24 03:28:00,37.0,15.0,29.66,NE,49,2.7,2.7,40,0.00,,CLR,0.00,VWS V14.01,2013-02-24 08:28:00,
2013-02-24 03:33:00,37.0,15.0,29.66,North,6,2.2,2.2,40,0.00,,CLR,0.00,VWS V14.01,2013-02-24 08:33:00,
2013-02-24 03:38:00,36.7,14.6,29.66,NE,36,0.0,0.0,40,0.00,,CLR,0.00,VWS V14.01,2013-02-24 08:38:00,
2013-02-24 03:43:00,36.7,14.6,29.66,NE,47,0.0,0.0,40,0.00,,CLR,0.00,VWS V14.01,2013-02-24 08:43:00,
2013-02-24 03:48:00,36.7,14.6,29.66,North,11,0.0,0.0,40,0.00,,CLR,0.00,VWS V14.01,2013-02-24 08:48:00,
2013-02-24 03:53:00,36.3,14.9,29.66,North,11,0.0,0.0,41,0.00,,CLR,0.00,VWS V14.01,2013-02-24 08:53:00,
2013-02-24 03:58:00,36.3,14.9,29.66,NNE,21,2.7,2.7,41,0.00,,CLR,0.00,VWS V14.01,2013-02-24 08:58:00,
2013-02-24 04:03:00,36.1,15.3,29.66,NE,45,0.0,3.6,42,0.00,,CLR,0.00,VWS V14.01,2013-02-24 09:03:00,
2013-02-24 04:09:00,36.0,15.1,29.66,East,95,2.7,2.7,42,0.00,,CLR,0.00,VWS V14.01,2013-02-24 09:09:00,
2013-02-24 04:14:00,36.0,16.7,29.66,NNE,15,0.0,0.0,45,0.00,,CLR,0.00,VWS V14.01,2013-02-24 09:14:00,
2013-02-24 04:19:00,36.0,17.7,29.66,NE,48,2.2,2.2,47,0.00,,CLR,0.00,VWS V14.01,2013-02-24 09:19:00,
2013-02-24 04:24:00,36.0,17.7,29.66,NE,48,0.0,2.2,47,0.00,,CLR,0.00,VWS V14.01,2013-02-24 09:24:00,
2013-02-24 04:29:00,35.8,17.5,29.66,ENE,77,0.0,0.0,47,0.00,,CLR,0.00,VWS V14.01,2013-02-24 09:29:00,
2013-02-24 04:34:00,35.6,17.4,29.66,East,79,0.0,0.0,47,0.00,,CLR,0.00,VWS V14.01,2013-02-24 09:34:00,
2013-02-24 04:39:00,35.6,18.3,29.66,East,79,0.0,0.0,49,0.00,,CLR,0.00,VWS V14.01,2013-02-24 09:39:00,
2013-02-24 04:44:00,35.6,18.3,29.66,East,79,0.0,3.1,49,0.00,,CLR,0.00,VWS V14.01,2013-02-24 09:44:00,
2013-02-24 04:49:00,35.6,18.3,29.66,East,79,0.0,2.2,49,0.00,,CLR,0.00,VWS V14.01,2013-02-24 09:49:00,
2013-02-24 04:55:00,35.8,19.0,29.66,East,79,0.0,2.2,50,0.00,,CLR,0.00,VWS V14.01,2013-02-24 09:55:00,
2013-02-24 05:00:00,35.8,19.0,29.69,East,79,0.0,2.2,50,0.00,,CLR,0.00,VWS V14.01,2013-02-24 10:00:00,
2013-02-24 05:05:00,35.8,19.0,29.69,NE,36,0.0,4.0,50,0.00,,CLR,0.00,VWS V14.01,2013-02-24 10:05:00,
2013-02-24 05:10:00,36.0,19.1,29.69,ENE,71,0.0,0.0,50,0.00,,CLR,0.00,VWS V14.01,2013-02-24 10:10:00,
2013-02-24 05:15:00,35.8,19.0,29.69,NE,38,0.0,2.2,50,0.00,,CLR,0.00,VWS V14.01,2013-02-24 10:15:00,
2013-02-24 05:20:00,35.6,18.8,29.69,NE,38,0.0,0.0,50,0.00,,CLR,0.00,VWS V14.01,2013-02-24 10:20:00,
2013-02-24 05:25:00,35.6,18.8,29.69,NNE,25,0.0,0.0,50,0.00,,CLR,0.00,VWS V14.01,2013-02-24 10:25:00,
2013-02-24 05:30:00,35.4,18.2,29.69,NNE,25,2.7,2.7,49,0.00,,CLR,0.00,VWS V14.01,2013-02-24 10:30:00,
2013-02-24 05:35:00,35.4,18.2,29.69,ENE,61,3.1,3.1,49,0.00,,CLR,0.00,VWS V14.01,2013-02-24 10:35:00,
2013-02-24 05:40:00,35.4,18.2,29.69,ENE,60,0.0,2.2,49,0.00,,CLR,0.00,VWS V14.01,2013-02-24 10:40:00,
2013-02-24 05:45:00,35.1,17.4,29.69,ENE,60,0.0,0.0,48,0.00,,CLR,0.00,VWS V14.01,2013-02-24 10:45:00,
2013-02-24 05:50:00,34.9,17.2,29.66,ENE,60,0.0,0.0,48,0.00,,CLR,0.00,VWS V14.01,2013-02-24 10:50:00,
2013-02-24 05:56:00,34.7,17.5,29.66,ENE,60,0.0,0.0,49,0.00,,CLR,0.00,VWS V14.01,2013-02-24 10:56:00,
2013-02-24 06:01:00,34.5,17.8,29.69,ENE,60,0.0,0.0,50,0.00,,CLR,0.00,VWS V14.01,2013-02-24 11:01:00,
2013-02-24 06:06:00,34.5,17.3,29.69,ENE,60,0.0,0.0,49,0.00,,CLR,0.00,VWS V14.01,2013-02-24 11:06:00,
2013-02-24 06:11:00,34.3,17.6,29.69,ENE,60,0.0,0.0,50,0.00,,CLR,0.00,VWS V14.01,2013-02-24 11:11:00,
2013-02-24 06:16:00,34.3,17.6,29.69,ENE,60,0.0,0.0,50,0.00,,CLR,0.00,VWS V14.01,2013-02-24 11:16:00,
2013-02-24 06:21:00,34.2,17.5,29.69,ENE,60,0.0,2.7,50,0.00,,CLR,0.00,VWS V14.01,2013-02-24 11:21:00,
2013-02-24 06:26:00,34.2,17.5,29.69,ENE,60,2.7,2.7,50,0.00,,CLR,0.00,VWS V14.01,2013-02-24 11:26:00,
2013-02-24 06:31:00,34.2,17.9,29.69,ENE,60,0.0,0.0,51,0.00,,CLR,0.00,VWS V14.01,2013-02-24 11:31:00,
2013-02-24 06:36:00,33.8,17.1,29.69,WSW,257,0.0,0.0,50,0.00,,CLR,0.00,VWS V14.01,2013-02-24 11:36:00,
2013-02-24 06:41:00,33.8,17.6,29.69,North,353,0.0,0.0,51,0.00,,CLR,0.00,VWS V14.01,2013-02-24 11:41:00,
2013-02-24 06:47:00,33.6,17.9,29.69,North,353,0.0,0.0,52,0.00,,CLR,0.00,VWS V14.01,2013-02-24 11:47:00,
2013-02-24 06:52:00,33.6,17.9,29.69,North,353,0.0,0.0,52,0.00,,CLR,0.00,VWS V14.01,2013-02-24 11:52:00,
2013-02-24 06:57:00,33.6,17.9,29.69,North,353,0.0,0.0,52,0.00,,CLR,0.00,VWS V14.01,2013-02-24 11:57:00,
2013-02-24 07:02:00,33.6,17.9,29.72,North,353,0.0,0.0,52,0.00,,CLR,0.00,VWS V14.01,2013-02-24 12:02:00,
2013-02-24 07:07:00,33.4,17.3,29.72,North,353,0.0,0.0,51,0.00,,CLR,0.00,VWS V14.01,2013-02-24 12:07:00,
2013-02-24 07:12:00,33.4,16.4,29.72,North,353,0.0,0.0,49,0.00,,CLR,0.00,VWS V14.01,2013-02-24 12:12:00,
2013-02-24 07:17:00,33.4,15.9,29.72,North,353,0.0,0.0,48,0.00,,CLR,0.00,VWS V14.01,2013-02-24 12:17:00,
2013-02-24 07:22:00,33.4,15.9,29.72,SW,229,0.0,0.0,48,0.00,,CLR,0.00,VWS V14.01,2013-02-24 12:22:00,
2013-02-24 07:27:00,33.1,15.1,29.72,SW,229,0.0,0.0,47,0.00,,CLR,0.00,VWS V14.01,2013-02-24 12:27:00,
2013-02-24 07:32:00,32.9,14.9,29.72,SW,229,0.0,0.0,47,0.00,,CLR,0.00,VWS V14.01,2013-02-24 12:32:00,
2013-02-24 07:37:00,33.1,15.1,29.72,SW,229,0.0,0.0,47,0.00,,CLR,0.00,VWS V14.01,2013-02-24 12:37:00,
2013-02-24 07:43:00,33.3,15.2,29.72,SW,229,0.0,0.0,47,0.00,,CLR,0.00,VWS V14.01,2013-02-24 12:43:00,
2013-02-24 07:48:00,33.3,15.2,29.72,SW,229,0.0,0.0,47,0.00,,CLR,0.00,VWS V14.01,2013-02-24 12:48:00,
2013-02-24 07:53:00,33.4,13.9,29.72,SW,229,0.0,0.0,44,0.00,,CLR,0.00,VWS V14.01,2013-02-24 12:53:00,
2013-02-24 07:58:00,33.8,13.7,29.72,SW,229,0.0,0.0,43,0.00,,CLR,0.00,VWS V14.01,2013-02-24 12:58:00,
2013-02-24 08:03:00,33.8,13.1,29.72,SW,229,0.0,0.0,42,0.00,,CLR,0.00,VWS V14.01,2013-02-24 13:03:00,
2013-02-24 08:08:00,34.0,13.3,29.72,SW,229,0.0,0.0,42,0.00,,CLR,0.00,VWS V14.01,2013-02-24 13:08:00,
2013-02-24 08:14:00,34.3,13.1,29.72,SW,229,0.0,0.0,41,0.00,,CLR,0.00,VWS V14.01,2013-02-24 13:14:00,
2013-02-24 08:19:00,34.9,13.6,29.72,SW,229,0.0,0.0,41,0.00,,CLR,0.00,VWS V14.01,2013-02-24 13:19:00,
2013-02-24 08:24:00,35.4,13.5,29.72,SW,229,0.0,0.0,40,0.00,,CLR,0.00,VWS V14.01,2013-02-24 13:24:00,
2013-02-24 08:29:00,36.5,13.3,29.72,SW,229,0.0,0.0,38,0.00,,CLR,0.00,VWS V14.01,2013-02-24 13:29:00,
2013-02-24 08:34:00,37.0,12.6,29.75,ENE,63,3.1,3.1,36,0.00,,CLR,0.00,VWS V14.01,2013-02-24 13:34:00,
2013-02-24 08:39:00,37.0,12.6,29.75,North,357,0.0,0.0,36,0.00,,CLR,0.00,VWS V14.01,2013-02-24 13:39:00,
2013-02-24 08:44:00,38.7,9.9,29.75,North,353,0.0,4.0,30,0.00,,CLR,0.00,VWS V14.01,2013-02-24 13:44:00,
2013-02-24 08:49:00,38.8,10.1,29.75,NNE,27,2.7,2.7,30,0.00,,CLR,0.00,VWS V14.01,2013-02-24 13:49:00,
2013-02-24 08:54:00,39.4,9.8,29.75,NNE,33,0.0,0.0,29,0.00,,CLR,0.00,VWS V14.01,2013-02-24 13:54:00,
2013-02-24 09:00:00,39.4,9.8,29.75,NNE,20,3.1,3.1,29,0.00,,CLR,0.00,VWS V14.01,2013-02-24 14:00:00,
2013-02-24 09:05:00,40.5,8.3,29.75,North,4,0.0,0.0,26,0.00,,CLR,0.00,VWS V14.01,2013-02-24 14:05:00,
2013-02-24 09:10:00,41.7,11.0,29.75,NNE,18,0.0,0.0,28,0.00,,CLR,0.00,VWS V14.01,2013-02-24 14:10:00,
2013-02-24 09:15:00,42.1,7.0,29.75,NNE,29,2.7,2.7,23,0.00,,CLR,0.00,VWS V14.01,2013-02-24 14:15:00,
2013-02-24 09:20:00,42.1,7.0,29.75,East,85,2.7,2.7,23,0.00,,CLR,0.00,VWS V14.01,2013-02-24 14:20:00,
2013-02-24 09:25:00,44.1,8.6,29.75,NNW,339,3.1,3.1,23,0.00,,CLR,0.00,VWS V14.01,2013-02-24 14:25:00,
2013-02-24 09:30:00,43.3,8.0,29.75,WSW,249,3.1,3.1,23,0.00,,CLR,0.00,VWS V14.01,2013-02-24 14:30:00,
2013-02-24 09:35:00,43.5,8.2,29.72,NNW,345,2.7,2.7,23,0.00,,CLR,0.00,VWS V14.01,2013-02-24 14:35:00,
2013-02-24 09:40:00,43.5,8.2,29.72,NNE,31,3.1,3.1,23,0.00,,CLR,0.00,VWS V14.01,2013-02-24 14:40:00,
2013-02-24 09:45:00,43.5,8.2,29.72,North,357,5.4,5.4,23,0.00,,CLR,0.00,VWS V14.01,2013-02-24 14:45:00,
2013-02-24 09:50:00,44.2,5.7,29.75,NNE,26,7.6,7.6,20,0.00,,CLR,0.00,VWS V14.01,2013-02-24 14:50:00,
2013-02-24 09:55:00,45.0,6.3,29.75,NNE,21,2.7,3.6,20,0.00,,CLR,0.00,VWS V14.01,2013-02-24 14:55:00,
2013-02-24 10:00:00,45.9,7.1,29.75,NW,322,3.1,3.1,20,0.00,,CLR,0.00,VWS V14.01,2013-02-24 15:00:00,
2013-02-24 10:05:00,45.9,7.1,29.75,NNE,23,4.0,5.8,20,0.00,,CLR,0.00,VWS V14.01,2013-02-24 15:05:00,
2013-02-24 10:10:00,48.2,7.9,29.75,North,10,2.2,2.2,19,0.00,,CLR,0.00,VWS V14.01,2013-02-24 15:10:00,
2013-02-24 10:15:00,49.3,8.8,29.75,North,353,4.0,4.0,19,0.00,,CLR,0.00,VWS V14.01,2013-02-24 15:15:00,
2013-02-24 10:20:00,50.2,9.5,29.75,West,264,3.1,3.1,19,0.00,,CLR,0.00,VWS V14.01,2013-02-24 15:20:00,
2013-02-24 10:26:00,50.2,9.5,29.75,NNE,14,3.1,5.8,19,0.00,,CLR,0.00,VWS V14.01,2013-02-24 15:26:00,
2013-02-24 10:31:00,51.6,10.7,29.75,NE,40,5.4,5.4,19,0.00,,CLR,0.00,VWS V14.01,2013-02-24 15:31:00,
2013-02-24 10:36:00,52.0,9.8,29.75,WSW,251,3.1,5.4,18,0.00,,CLR,0.00,VWS V14.01,2013-02-24 15:36:00,
2013-02-24 10:41:00,52.5,10.2,29.75,WSW,251,3.1,3.1,18,0.00,,CLR,0.00,VWS V14.01,2013-02-24 15:41:00,
2013-02-24 10:46:00,53.1,10.7,29.75,North,353,0.0,3.1,18,0.00,,CLR,0.00,VWS V14.01,2013-02-24 15:46:00,
2013-02-24 10:51:00,54.3,11.7,29.75,WNW,296,3.6,3.6,18,0.00,,CLR,0.00,VWS V14.01,2013-02-24 15:51:00,
2013-02-24 10:56:00,55.0,12.3,29.75,East,96,2.7,2.7,18,0.00,,CLR,0.00,VWS V14.01,2013-02-24 15:56:00,
2013-02-24 11:01:00,55.9,11.8,29.75,NNW,345,0.0,0.0,17,0.00,,CLR,0.00,VWS V14.01,2013-02-24 16:01:00,
2013-02-24 11:06:00,56.3,12.1,29.75,NNW,340,2.7,4.5,17,0.00,,CLR,0.00,VWS V14.01,2013-02-24 16:06:00,
2013-02-24 11:11:00,56.3,12.1,29.75,NNW,332,2.2,2.2,17,0.00,,CLR,0.00,VWS V14.01,2013-02-24 16:11:00,
2013-02-24 11:16:00,56.3,12.1,29.75,ENE,58,5.8,5.8,17,0.00,,CLR,0.00,VWS V14.01,2013-02-24 16:16:00,
2013-02-24 11:22:00,58.5,13.8,29.75,NE,36,3.1,3.1,17,0.00,,CLR,0.00,VWS V14.01,2013-02-24 16:22:00,
2013-02-24 11:27:00,59.4,14.6,29.75,NNE,15,0.0,0.0,17,0.00,,CLR,0.00,VWS V14.01,2013-02-24 16:27:00,
2013-02-24 11:32:00,59.0,14.3,29.75,WNW,297,3.1,3.1,17,0.00,,CLR,0.00,VWS V14.01,2013-02-24 16:32:00,
2013-02-24 11:37:00,59.0,14.3,29.75,NNE,26,4.0,4.0,17,0.00,,CLR,0.00,VWS V14.01,2013-02-24 16:37:00,
2013-02-24 11:42:00,59.0,14.3,29.75,SW,214,3.1,3.1,17,0.00,,CLR,0.00,VWS V14.01,2013-02-24 16:42:00,
2013-02-24 11:47:00,60.1,15.1,29.75,NNW,346,4.0,4.0,17,0.00,,CLR,0.00,VWS V14.01,2013-02-24 16:47:00,
2013-02-24 11:52:00,61.0,18.5,29.75,ENE,61,2.7,2.7,19,0.00,,CLR,0.00,VWS V14.01,2013-02-24 16:52:00,
2013-02-24 11:57:00,61.0,18.5,29.75,SSE,164,6.3,6.3,19,0.00,,CLR,0.00,VWS V14.01,2013-02-24 16:57:00,
2013-02-24 12:02:00,60.8,18.3,29.75,North,357,0.0,0.0,19,0.00,,CLR,0.00,VWS V14.01,2013-02-24 17:02:00,
2013-02-24 12:07:00,61.9,19.2,29.75,NNW,343,2.7,2.7,19,0.00,,CLR,0.00,VWS V14.01,2013-02-24 17:07:00,
2013-02-24 12:13:00,62.4,19.6,29.75,SSW,202,3.1,3.1,19,0.00,,CLR,0.00,VWS V14.01,2013-02-24 17:13:00,
2013-02-24 12:18:00,62.4,19.6,29.75,East,93,3.1,3.1,19,0.00,,CLR,0.00,VWS V14.01,2013-02-24 17:18:00,
2013-02-24 12:23:00,63.5,19.3,29.75,SE,133,0.0,0.0,18,0.00,,CLR,0.00,VWS V14.01,2013-02-24 17:23:00,
2013-02-24 12:28:00,63.5,19.3,29.75,NNE,19,3.6,3.6,18,0.00,,CLR,0.00,VWS V14.01,2013-02-24 17:28:00,
2013-02-24 12:33:00,63.5,19.3,29.75,WSW,237,4.0,4.0,18,0.00,,CLR,0.00,VWS V14.01,2013-02-24 17:33:00,
2013-02-24 12:38:00,65.5,20.9,29.75,NNW,343,3.1,3.1,18,0.00,,CLR,0.00,VWS V14.01,2013-02-24 17:38:00,
2013-02-24 12:43:00,65.5,20.9,29.75,South,191,2.7,2.7,18,0.00,,CLR,0.00,VWS V14.01,2013-02-24 17:43:00,
2013-02-24 12:49:00,65.7,21.0,29.75,NNW,344,2.7,2.7,18,0.00,,CLR,0.00,VWS V14.01,2013-02-24 17:49:00,
2013-02-24 12:54:00,65.5,20.9,29.75,North,9,4.9,4.9,18,0.00,,CLR,0.00,VWS V14.01,2013-02-24 17:54:00,
2013-02-24 12:59:00,65.5,20.9,29.75,WSW,238,3.6,4.0,18,0.00,,CLR,0.00,VWS V14.01,2013-02-24 17:59:00,
2013-02-24 13:04:00,66.7,20.6,29.75,South,176,2.7,2.7,17,0.00,,CLR,0.00,VWS V14.01,2013-02-24 18:04:00,
2013-02-24 13:09:00,68.0,21.6,29.75,SW,235,5.4,5.4,17,0.00,,CLR,0.00,VWS V14.01,2013-02-24 18:09:00,
2013-02-24 13:14:00,68.5,22.0,29.75,SW,235,5.4,5.4,17,0.00,,CLR,0.00,VWS V14.01,2013-02-24 18:14:00,
2013-02-24 13:19:00,68.2,21.7,29.75,NNE,24,5.8,5.8,17,0.00,,CLR,0.00,VWS V14.01,2013-02-24 18:19:00,
2013-02-24 13:24:00,67.8,21.5,29.75,SSE,167,3.1,3.1,17,0.00,,CLR,0.00,VWS V14.01,2013-02-24 18:24:00,
2013-02-24 13:30:00,67.6,21.3,29.75,SW,216,3.6,3.6,17,0.00,,CLR,0.00,VWS V14.01,2013-02-24 18:30:00,
2013-02-24 13:35:00,67.5,21.2,29.75,West,267,4.0,4.0,17,0.00,,CLR,0.00,VWS V14.01,2013-02-24 18:35:00,
2013-02-24 13:40:00,67.6,21.3,29.75,North,7,4.9,4.9,17,0.00,,CLR,0.00,VWS V14.01,2013-02-24 18:40:00,
2013-02-24 13:45:00,67.8,21.5,29.75,WSW,254,5.8,5.8,17,0.00,,CLR,0.00,VWS V14.01,2013-02-24 18:45:00,
2013-02-24 13:50:00,67.8,21.5,29.75,NW,325,7.6,7.6,17,0.00,,CLR,0.00,VWS V14.01,2013-02-24 18:50:00,
2013-02-24 13:55:00,68.7,22.2,29.75,NE,43,4.0,4.0,17,0.00,,CLR,0.00,VWS V14.01,2013-02-24 18:55:00,
2013-02-24 14:00:00,68.5,22.0,29.75,ENE,77,3.6,3.6,17,0.00,,CLR,0.00,VWS V14.01,2013-02-24 19:00:00,
2013-02-24 14:05:00,68.4,21.9,29.75,North,0,3.1,3.1,17,0.00,,CLR,0.00,VWS V14.01,2013-02-24 19:05:00,
2013-02-24 14:11:00,68.7,22.2,29.75,SW,225,3.6,3.6,17,0.00,,CLR,0.00,VWS V14.01,2013-02-24 19:11:00,
2013-02-24 14:16:00,69.4,22.8,29.72,WNW,296,0.0,0.0,17,0.00,,CLR,0.00,VWS V14.01,2013-02-24 19:16:00,
2013-02-24 14:21:00,70.2,23.4,29.72,WSW,238,2.2,2.7,17,0.00,,CLR,0.00,VWS V14.01,2013-02-24 19:21:00,
2013-02-24 14:26:00,69.3,22.6,29.72,SSW,204,3.6,3.6,17,0.00,,CLR,0.00,VWS V14.01,2013-02-24 19:26:00,
2013-02-24 14:31:00,68.5,22.0,29.72,SW,233,6.3,6.3,17,0.00,,CLR,0.00,VWS V14.01,2013-02-24 19:31:00,
2013-02-24 14:36:00,68.4,21.9,29.72,WSW,251,4.0,4.0,17,0.00,,CLR,0.00,VWS V14.01,2013-02-24 19:36:00,
2013-02-24 14:41:00,70.7,23.8,29.72,NNW,343,3.6,3.6,17,0.00,,CLR,0.00,VWS V14.01,2013-02-24 19:41:00,
2013-02-24 14:46:00,71.4,24.4,29.75,SE,136,4.0,4.0,17,0.00,,CLR,0.00,VWS V14.01,2013-02-24 19:46:00,
2013-02-24 14:51:00,72.3,23.6,29.75,SSW,197,2.7,2.7,16,0.00,,CLR,0.00,VWS V14.01,2013-02-24 19:51:00,
2013-02-24 14:56:00,72.5,23.8,29.75,North,357,3.1,3.6,16,0.00,,CLR,0.00,VWS V14.01,2013-02-24 19:56:00,
2013-02-24 15:01:00,72.3,23.6,29.75,NW,321,2.7,2.7,16,0.00,,CLR,0.00,VWS V14.01,2013-02-24 20:01:00,
2013-02-24 15:06:00,73.0,24.2,29.75,SSW,203,2.7,3.1,16,0.00,,CLR,0.00,VWS V14.01,2013-02-24 20:06:00,
2013-02-24 15:11:00,73.6,24.7,29.75,South,179,3.6,3.6,16,0.00,,CLR,0.00,VWS V14.01,2013-02-24 20:11:00,
2013-02-24 15:17:00,73.0,24.2,29.75,West,273,3.1,6.3,16,0.00,,CLR,0.00,VWS V14.01,2013-02-24 20:17:00,
2013-02-24 15:22:00,73.0,24.2,29.75,NE,38,2.7,2.7,16,0.00,,CLR,0.00,VWS V14.01,2013-02-24 20:22:00,
2013-02-24 15:27:00,72.9,24.1,29.75,West,274,4.0,4.0,16,0.00,,CLR,0.00,VWS V14.01,2013-02-24 20:27:00,
2013-02-24 15:32:00,72.3,23.6,29.72,WSW,246,3.6,3.6,16,0.00,,CLR,0.00,VWS V14.01,2013-02-24 20:32:00,
2013-02-24 15:37:00,72.7,23.9,29.72,WSW,252,4.0,4.0,16,0.00,,CLR,0.00,VWS V14.01,2013-02-24 20:37:00,
2013-02-24 15:42:00,72.1,23.5,29.72,WNW,285,3.1,3.1,16,0.00,,CLR,0.00,VWS V14.01,2013-02-24 20:42:00,
2013-02-24 15:47:00,72.1,23.5,29.72,West,281,0.0,3.1,16,0.00,,CLR,0.00,VWS V14.01,2013-02-24 20:47:00,
2013-02-24 15:52:00,71.8,23.2,29.72,WNW,300,2.7,3.6,16,0.00,,CLR,0.00,VWS V14.01,2013-02-24 20:52:00,
2013-02-24 15:57:00,71.8,23.2,29.72,SSE,158,2.2,2.2,16,0.00,,CLR,0.00,VWS V14.01,2013-02-24 20:57:00,
2013-02-24 16:02:00,71.6,23.1,29.75,West,279,3.6,3.6,16,0.00,,CLR,0.00,VWS V14.01,2013-02-24 21:02:00,
2013-02-24 16:07:00,71.2,24.2,29.75,WNW,295,2.2,2.2,17,0.00,,CLR,0.00,VWS V14.01,2013-02-24 21:07:00,
2013-02-24 16:13:00,71.1,24.1,29.75,WNW,286,3.6,3.6,17,0.00,,CLR,0.00,VWS V14.01,2013-02-24 21:13:00,
2013-02-24 16:18:00,70.5,23.6,29.75,West,280,3.1,3.1,17,0.00,,CLR,0.00,VWS V14.01,2013-02-24 21:18:00,
2013-02-24 16:23:00,71.8,23.2,29.75,West,276,2.7,2.7,16,0.00,,CLR,0.00,VWS V14.01,2013-02-24 21:23:00,
2013-02-24 16:28:00,72.0,23.4,29.75,WNW,293,0.0,0.0,16,0.00,,CLR,0.00,VWS V14.01,2013-02-24 21:28:00,
2013-02-24 16:33:00,71.4,24.4,29.75,West,278,2.7,2.7,17,0.00,,CLR,0.00,VWS V14.01,2013-02-24 21:33:00,
2013-02-24 16:38:00,71.4,24.4,29.75,WNW,298,3.1,3.1,17,0.00,,CLR,0.00,VWS V14.01,2013-02-24 21:38:00,
2013-02-24 16:43:00,69.8,23.1,29.75,NNW,339,2.2,2.2,17,0.00,,CLR,0.00,VWS V14.01,2013-02-24 21:43:00,
2013-02-24 16:48:00,69.4,22.8,29.75,WNW,285,0.0,2.7,17,0.00,,CLR,0.00,VWS V14.01,2013-02-24 21:48:00,
2013-02-24 16:53:00,68.7,22.2,29.75,WNW,298,3.1,3.1,17,0.00,,CLR,0.00,VWS V14.01,2013-02-24 21:53:00,
2013-02-24 16:59:00,68.9,22.3,29.75,West,261,0.0,0.0,17,0.00,,CLR,0.00,VWS V14.01,2013-02-24 21:59:00,
2013-02-24 17:04:00,68.9,22.3,29.75,SSE,167,0.0,0.0,17,0.00,,CLR,0.00,VWS V14.01,2013-02-24 22:04:00,
2013-02-24 17:09:00,64.4,20.0,29.75,West,268,3.6,3.6,18,0.00,,CLR,0.00,VWS V14.01,2013-02-24 22:09:00,
2013-02-24 17:14:00,61.9,19.2,29.75,WNW,289,3.6,3.6,19,0.00,,CLR,0.00,VWS V14.01,2013-02-24 22:14:00,
2013-02-24 17:19:00,60.6,18.2,29.75,WSW,241,0.0,0.0,19,0.00,,CLR,0.00,VWS V14.01,2013-02-24 22:19:00,
2013-02-24 17:24:00,58.5,16.4,29.75,North,357,2.7,2.7,19,0.00,,CLR,0.00,VWS V14.01,2013-02-24 22:24:00,
2013-02-24 17:29:00,57.4,15.5,29.75,NNW,344,2.7,2.7,19,0.00,,CLR,0.00,VWS V14.01,2013-02-24 22:29:00,
2013-02-24 17:34:00,56.7,12.4,29.75,West,276,0.0,0.0,17,0.00,,CLR,0.00,VWS V14.01,2013-02-24 22:34:00,
2013-02-24 17:39:00,55.9,11.8,29.75,ENE,64,0.0,0.0,17,0.00,,CLR,0.00,VWS V14.01,2013-02-24 22:39:00,
2013-02-24 17:44:00,55.4,11.3,29.75,West,265,0.0,0.0,17,0.00,,CLR,0.00,VWS V14.01,2013-02-24 22:44:00,
2013-02-24 17:49:00,55.4,11.3,29.75,WSW,258,0.0,0.0,17,0.00,,CLR,0.00,VWS V14.01,2013-02-24 22:49:00,
2013-02-24 17:54:00,53.6,11.1,29.75,WNW,296,0.0,0.0,18,0.00,,CLR,0.00,VWS V14.01,2013-02-24 22:54:00,
2013-02-24 18:00:00,52.7,10.4,29.75,SSW,195,3.1,3.1,18,0.00,,CLR,0.00,VWS V14.01,2013-02-24 23:00:00,
2013-02-24 18:05:00,51.3,10.4,29.75,SW,226,0.0,0.0,19,0.00,,CLR,0.00,VWS V14.01,2013-02-24 23:05:00,
2013-02-24 18:10:00,50.5,9.8,29.75,SW,226,0.0,0.0,19,0.00,,CLR,0.00,VWS V14.01,2013-02-24 23:10:00,
2013-02-24 18:15:00,49.6,9.1,29.75,SW,226,0.0,0.0,19,0.00,,CLR,0.00,VWS V14.01,2013-02-24 23:15:00,
2013-02-24 18:20:00,49.3,8.8,29.75,SW,226,0.0,0.0,19,0.00,,CLR,0.00,VWS V14.01,2013-02-24 23:20:00,
2013-02-24 18:25:00,48.4,8.0,29.75,SW,226,0.0,0.0,19,0.00,,CLR,0.00,VWS V14.01,2013-02-24 23:25:00,
2013-02-24 18:30:00,47.8,7.6,29.75,NW,326,0.0,0.0,19,0.00,,CLR,0.00,VWS V14.01,2013-02-24 23:30:00,
2013-02-24 18:35:00,47.5,7.3,29.75,NW,326,0.0,0.0,19,0.00,,CLR,0.00,VWS V14.01,2013-02-24 23:35:00,
2013-02-24 18:40:00,47.1,7.0,29.75,NW,326,0.0,0.0,19,0.00,,CLR,0.00,VWS V14.01,2013-02-24 23:40:00,
2013-02-24 18:46:00,46.9,6.8,29.78,NW,326,0.0,0.0,19,0.00,,CLR,0.00,VWS V14.01,2013-02-24 23:46:00,
2013-02-24 18:51:00,46.2,7.4,29.78,NW,326,0.0,0.0,20,0.00,,CLR,0.00,VWS V14.01,2013-02-24 23:51:00,
2013-02-24 18:56:00,46.0,7.2,29.78,NW,326,0.0,0.0,20,0.00,,CLR,0.00,VWS V14.01,2013-02-24 23:56:00,
2013-02-24 19:01:00,45.7,6.9,29.78,NW,326,0.0,0.0,20,0.00,,CLR,0.00,VWS V14.01,2013-02-25 00:01:00,
2013-02-24 19:06:00,45.7,6.9,29.78,NW,326,0.0,0.0,20,0.00,,CLR,0.00,VWS V14.01,2013-02-25 00:06:00,
2013-02-24 19:11:00,45.7,6.9,29.78,NNW,338,3.1,3.1,20,0.00,,CLR,0.00,VWS V14.01,2013-02-25 00:11:00,
2013-02-24 19:16:00,45.5,6.8,29.78,North,6,2.2,2.2,20,0.00,,CLR,0.00,VWS V14.01,2013-02-25 00:16:00,
2013-02-24 19:21:00,45.7,6.9,29.78,NW,318,2.7,2.7,20,0.00,,CLR,0.00,VWS V14.01,2013-02-25 00:21:00,
2013-02-24 19:26:00,45.7,6.9,29.78,NE,45,2.7,2.7,20,0.00,,CLR,0.00,VWS V14.01,2013-02-25 00:26:00,
2013-02-24 19:31:00,45.7,6.9,29.78,North,353,3.1,3.1,20,0.00,,CLR,0.00,VWS V14.01,2013-02-25 00:31:00,
2013-02-24 19:36:00,45.0,6.3,29.78,NNE,32,3.6,3.6,20,0.00,,CLR,0.00,VWS V14.01,2013-02-25 00:36:00,
2013-02-24 19:41:00,44.8,6.2,29.78,NNE,27,3.1,3.1,20,0.00,,CLR,0.00,VWS V14.01,2013-02-25 00:41:00,
2013-02-24 19:46:00,44.6,6.0,29.78,NNE,27,0.0,0.0,20,0.00,,CLR,0.00,VWS V14.01,2013-02-25 00:46:00,
2013-02-24 19:51:00,43.7,5.3,29.78,WNW,303,2.2,3.1,20,0.00,,CLR,0.00,VWS V14.01,2013-02-25 00:51:00,
2013-02-24 19:57:00,43.5,5.1,29.78,North,2,0.0,0.0,20,0.00,,CLR,0.00,VWS V14.01,2013-02-25 00:57:00,
2013-02-24 20:02:00,43.7,5.3,29.78,North,2,3.1,3.1,20,0.00,,CLR,0.00,VWS V14.01,2013-02-25 01:02:00,
2013-02-24 20:07:00,43.5,5.1,29.78,NE,50,3.6,4.0,20,0.00,,CLR,0.00,VWS V14.01,2013-02-25 01:07:00,
2013-02-24 20:12:00,43.3,5.0,29.78,ENE,58,4.0,4.0,20,0.00,,CLR,0.00,VWS V14.01,2013-02-25 01:12:00,
2013-02-24 20:17:00,42.8,4.5,29.78,NE,42,2.7,2.7,20,0.00,,CLR,0.00,VWS V14.01,2013-02-25 01:17:00,
2013-02-24 20:22:00,42.8,4.5,29.78,NE,48,3.1,3.1,20,0.00,,CLR,0.00,VWS V14.01,2013-02-25 01:22:00,
2013-02-24 20:27:00,42.1,5.0,29.78,NE,47,2.7,2.7,21,0.00,,CLR,0.00,VWS V14.01,2013-02-25 01:27:00,
2013-02-24 20:32:00,41.4,4.4,29.78,NE,47,3.6,3.6,21,0.00,,CLR,0.00,VWS V14.01,2013-02-25 01:32:00,
2013-02-24 20:37:00,41.2,4.2,29.78,NE,47,2.7,2.7,21,0.00,,CLR,0.00,VWS V14.01,2013-02-25 01:37:00,
2013-02-24 20:43:00,41.2,4.2,29.78,NE,47,3.1,3.1,21,0.00,,CLR,0.00,VWS V14.01,2013-02-25 01:43:00,
2013-02-24 20:48:00,41.2,4.2,29.78,NE,47,3.1,3.6,21,0.00,,CLR,0.00,VWS V14.01,2013-02-25 01:48:00,
2013-02-24 20:53:00,40.6,3.8,29.78,NE,47,2.2,3.1,21,0.00,,CLR,0.00,VWS V14.01,2013-02-25 01:53:00,
2013-02-24 20:58:00,39.9,3.2,29.78,NE,47,2.7,3.1,21,0.00,,CLR,0.00,VWS V14.01,2013-02-25 01:58:00,
2013-02-24 21:03:00,39.4,2.7,29.78,NE,47,3.1,3.1,21,0.00,,CLR,0.00,VWS V14.01,2013-02-25 02:03:00,
2013-02-24 21:08:00,39.4,2.7,29.78,NE,40,4.0,4.0,21,0.00,,CLR,0.00,VWS V14.01,2013-02-25 02:08:00,
2013-02-24 21:13:00,39.2,2.6,29.78,NNE,28,4.0,4.0,21,0.00,,CLR,0.00,VWS V14.01,2013-02-25 02:13:00,
2013-02-24 21:18:00,39.2,2.6,29.78,NNE,27,4.0,4.0,21,0.00,,CLR,0.00,VWS V14.01,2013-02-25 02:18:00,
2013-02-24 21:23:00,39.2,2.6,29.78,NNE,25,4.0,4.0,21,0.00,,CLR,0.00,VWS V14.01,2013-02-25 02:23:00,
2013-02-24 21:28:00,39.2,2.6,29.78,NE,34,4.5,4.5,21,0.00,,CLR,0.00,VWS V14.01,2013-02-25 02:28:00,
2013-02-24 21:33:00,38.8,2.3,29.78,NE,36,4.0,4.0,21,0.00,,CLR,0.00,VWS V14.01,2013-02-25 02:33:00,
2013-02-24 21:38:00,39.4,2.7,29.78,NNE,24,5.4,5.4,21,0.00,,CLR,0.00,VWS V14.01,2013-02-25 02:38:00,
2013-02-24 21:43:00,38.8,2.3,29.78,NNE,28,4.9,4.9,21,0.00,,CLR,0.00,VWS V14.01,2013-02-25 02:43:00,
2013-02-24 21:49:00,38.5,2.0,29.78,NE,34,4.5,4.5,21,0.00,,CLR,0.00,VWS V14.01,2013-02-25 02:49:00,
2013-02-24 21:54:00,37.9,1.5,29.78,NNE,26,4.0,4.0,21,0.00,,CLR,0.00,VWS V14.01,2013-02-25 02:54:00,
2013-02-24 21:59:00,37.8,1.4,29.81,NNE,19,4.0,5.4,21,0.00,,CLR,0.00,VWS V14.01,2013-02-25 02:59:00,
2013-02-24 22:04:00,37.6,1.2,29.81,NE,39,3.1,3.1,21,0.00,,CLR,0.00,VWS V14.01,2013-02-25 03:04:00,
2013-02-24 22:09:00,37.9,1.5,29.81,NNE,27,3.1,3.1,21,0.00,,CLR,0.00,VWS V14.01,2013-02-25 03:09:00,
2013-02-24 22:14:00,37.8,1.4,29.81,NNE,23,3.1,3.1,21,0.00,,CLR,0.00,VWS V14.01,2013-02-25 03:14:00,
2013-02-24 22:19:00,37.9,1.5,29.81,North,11,3.1,4.0,21,0.00,,CLR,0.00,VWS V14.01,2013-02-25 03:19:00,
2013-02-24 22:24:00,37.9,1.5,29.81,NNE,14,2.2,2.7,21,0.00,,CLR,0.00,VWS V14.01,2013-02-25 03:24:00,
2013-02-24 22:29:00,37.6,1.2,29.81,NNW,341,3.1,3.1,21,0.00,,CLR,0.00,VWS V14.01,2013-02-25 03:29:00,
2013-02-24 22:34:00,37.4,1.0,29.81,North,353,2.7,2.7,21,0.00,,CLR,0.00,VWS V14.01,2013-02-25 03:34:00,
2013-02-24 22:39:00,37.4,1.0,29.81,North,2,2.2,2.2,21,0.00,,CLR,0.00,VWS V14.01,2013-02-25 03:39:00,
2013-02-24 22:44:00,36.9,1.6,29.81,North,2,2.7,2.7,22,0.00,,CLR,0.00,VWS V14.01,2013-02-25 03:44:00,
2013-02-24 22:49:00,36.3,1.1,29.78,NNE,28,3.1,3.6,22,0.00,,CLR,0.00,VWS V14.01,2013-02-25 03:49:00,
2013-02-24 22:54:00,36.1,1.0,29.78,NNE,28,2.7,2.7,22,0.00,,CLR,0.00,VWS V14.01,2013-02-25 03:54:00,
2013-02-24 22:59:00,36.0,0.8,29.78,North,349,2.2,2.2,22,0.00,,CLR,0.00,VWS V14.01,2013-02-25 03:59:00,
2013-02-24 23:04:00,35.4,0.4,29.78,North,349,2.7,2.7,22,0.00,,CLR,0.00,VWS V14.01,2013-02-25 04:04:00,
2013-02-24 23:10:00,35.6,0.5,29.78,North,349,2.7,2.7,22,0.00,,CLR,0.00,VWS V14.01,2013-02-25 04:10:00,
2013-02-24 23:15:00,35.6,0.5,29.78,North,353,3.1,3.1,22,0.00,,CLR,0.00,VWS V14.01,2013-02-25 04:15:00,
2013-02-24 23:20:00,36.0,0.8,29.78,NNW,339,4.0,4.0,22,0.00,,CLR,0.00,VWS V14.01,2013-02-25 04:20:00,
2013-02-24 23:25:00,36.1,1.0,29.78,North,11,3.6,3.6,22,0.00,,CLR,0.00,VWS V14.01,2013-02-25 04:25:00,
2013-02-24 23:30:00,36.3,1.1,29.78,North,3,4.0,4.0,22,0.00,,CLR,0.00,VWS V14.01,2013-02-25 04:30:00,
2013-02-24 23:35:00,36.9,1.6,29.78,North,0,3.6,3.6,22,0.00,,CLR,0.00,VWS V14.01,2013-02-25 04:35:00,
2013-02-24 23:40:00,37.0,1.7,29.78,North,353,2.2,2.7,22,0.00,,CLR,0.00,VWS V14.01,2013-02-25 04:40:00,
2013-02-24 23:45:00,37.9,1.5,29.78,North,3,4.0,4.0,21,0.00,,CLR,0.00,VWS V14.01,2013-02-25 04:45:00,
2013-02-24 23:50:00,38.1,1.6,29.78,NNE,15,3.1,3.6,21,0.00,,CLR,0.00,VWS V14.01,2013-02-25 04:50:00,
2013-02-24 23:56:00,38.1,1.6,29.78,North,4,3.1,3.1,21,0.00,,CLR,0.00,VWS V14.01,2013-02-25 04:56:00,